Location: Sungai Apap
(2.6167°N, 113.3833°E)
Time: 14:50:47
(UTC+00:00)

Cosmos 2228 - Pass Details

Date: 25 May 2024
Orbit: 578 x 603 km, 82.5° (Epoch: 14 June)

Event Time Altitude Azimuth Distance (km) Brightness Sun altitude
Rises 21:34:05 0° 350° (N) 2,840 6.6 -10.5°
Reaches altitude 10° 21:36:18 10° 347° (NNW) 1,939 5.7 -10.0°
Maximum altitude 21:40:32 61° 267° (W) 681 3.0 -9.1°
Drops below altitude 10° 21:44:46 10° 186° (S) 1,940 5.3 -8.1°
Sets 21:47:00 0° 182° (S) 2,841 6.2 -7.6°
